| time (UTC) | temp F | wind direction | speed MPH | gust MPH | rain 1hr in | rain 24hr in | rain mn in | humidity % | barometer mb |
| 20260507020729 | 32 | 142 | 1.0 | 2.0 | 0.00 | 0.00 | 0.00 | 95 | 1012.3 |
| 20260507014729 | 32 | 212 | 3.0 | 3.0 | 0.00 | 0.00 | 0.00 | 94 | 1012.2 |
| 20260507012728 | 32 | 253 | 2.0 | 2.0 | 0.00 | 0.00 | 0.00 | 94 | 1012.2 |
| 20260507010728 | 32 | 4 | 1.0 | 2.0 | 0.00 | 0.00 | 0.00 | 94 | 1012.1 |
| 20260507004728 | 32 | 5 | 2.0 | 3.0 | 0.00 | 0.00 | 0.00 | 94 | 1012.0 |
| 20260507002728 | 32 | 34 | 3.0 | 4.0 | 0.00 | 0.00 | 0.00 | 94 | 1011.9 |
| 20260507000728 | 33 | 57 | 2.0 | 3.0 | 0.00 | 0.00 | 0.00 | 93 | 1011.7 |
| 20260506234729 | 33 | 33 | 2.0 | 3.0 | 0.00 | 0.00 | 0.00 | 93 | 1011.7 |
| 20260506232728 | 33 | 14 | 2.0 | 3.0 | 0.00 | 0.00 | 0.00 | 93 | 1011.6 |
| 20260506230730 | 33 | 25 | 4.0 | 5.0 | 0.00 | 0.00 | 0.00 | 92 | 1011.4 |
| 20260506224727 | 33 | 49 | 4.0 | 5.0 | 0.00 | 0.00 | 0.00 | 91 | 1011.3 |
| 20260506222728 | 33 | 353 | 2.0 | 3.0 | 0.00 | 0.00 | 0.00 | 89 | 1011.3 |
| 20260506220728 | 34 | 235 | 2.0 | 3.0 | 0.00 | 0.00 | 0.00 | 85 | 1011.2 |
| 20260506212728 | 35 | 304 | 2.0 | 3.0 | 0.00 | 0.00 | 0.00 | 82 | 1010.9 |
| 20260506210728 | 34 | 308 | 3.0 | 4.0 | 0.00 | 0.00 | 0.00 | 82 | 1010.8 |
| 20260506204727 | 35 | 324 | 6.0 | 12.0 | 0.00 | 0.00 | 0.00 | 78 | 1010.8 |
| 20260506202728 | 35 | 265 | 4.0 | 6.0 | 0.00 | 0.00 | 0.00 | 72 | 1010.6 |
| 20260506200728 | 35 | 242 | 2.0 | 3.0 | 0.00 | 0.00 | 0.00 | 75 | 1010.3 |
| 20260506194727 | 36 | 240 | 4.0 | 5.0 | 0.00 | 0.00 | 0.00 | 67 | 1010.1 |
| 20260506192727 | 35 | 242 | 4.0 | 6.0 | 0.00 | 0.00 | 0.00 | 69 | 1010.1 |
| 20260506190727 | 35 | 46 | 2.0 | 3.0 | 0.00 | 0.00 | 0.00 | 76 | 1009.9 |
| 20260506184727 | 37 | 25 | 3.0 | 4.0 | 0.00 | 0.00 | 0.00 | 65 | 1009.7 |
| 20260506180727 | 38 | 134 | 3.0 | 4.0 | 0.00 | 0.00 | 0.00 | 62 | 1009.4 |
| 20260506174727 | 39 | 98 | 4.0 | 6.0 | 0.00 | 0.00 | 0.00 | 58 | 1009.2 |
| 20260506172726 | 40 | 115 | 4.0 | 6.0 | 0.00 | 0.00 | 0.00 | 58 | 1009.1 |
| 20260506170727 | 40 | 45 | 5.0 | 8.0 | 0.00 | 0.00 | 0.00 | 58 | 1009.0 |
| 20260506164726 | 40 | 41 | 7.0 | 10.0 | 0.00 | 0.00 | 0.00 | 58 | 1008.9 |
| 20260506162727 | 40 | 31 | 6.0 | 9.0 | 0.00 | 0.00 | 0.00 | 53 | 1008.8 |
| 20260506160726 | 40 | 17 | 11.0 | 15.0 | 0.00 | 0.00 | 0.00 | 49 | 1008.7 |
| 20260506154727 | 41 | 306 | 6.0 | 9.0 | 0.00 | 0.00 | 0.00 | 46 | 1008.5 |
| 20260506152727 | 41 | 268 | 7.0 | 9.0 | 0.00 | 0.00 | 0.00 | 47 | 1008.4 |
| 20260506150726 | 41 | 222 | 5.0 | 7.0 | 0.00 | 0.00 | 0.00 | 47 | 1008.3 |
| 20260506144725 | 41 | 231 | 4.0 | 7.0 | 0.00 | 0.00 | 0.00 | 48 | 1008.3 |
| 20260506142726 | 40 | 273 | 3.0 | 7.0 | 0.00 | 0.00 | 0.00 | 57 | 1008.3 |
| 20260506140726 | 39 | 314 | 6.0 | 11.0 | 0.00 | 0.00 | 0.00 | 62 | 1008.3 |
| 20260506134726 | 39 | 308 | 8.0 | 11.0 | 0.00 | 0.00 | 0.00 | 61 | 1008.3 |
| 20260506132726 | 40 | 307 | 5.0 | 10.0 | 0.00 | 0.00 | 0.00 | 52 | 1008.1 |
| 20260506124725 | 40 | 3 | 2.0 | 6.0 | 0.00 | 0.00 | 0.00 | 53 | 1007.8 |
| 20260506122725 | 39 | 330 | 6.0 | 10.0 | 0.00 | 0.00 | 0.00 | 59 | 1007.8 |
| 20260506120726 | 39 | 261 | 3.0 | 6.0 | 0.00 | 0.00 | 0.00 | 58 | 1007.7 |
| 20260506114726 | 37 | 274 | 7.0 | 11.0 | 0.00 | 0.00 | 0.00 | 66 | 1007.6 |
| 20260506112726 | 36 | 288 | 12.0 | 17.0 | 0.00 | 0.00 | 0.00 | 72 | 1007.4 |
| 20260506110725 | 39 | 357 | 5.0 | 7.0 | 0.00 | 0.00 | 0.00 | 50 | 1007.0 |
| 20260506104727 | 39 | 271 | 4.0 | 7.0 | 0.00 | 0.00 | 0.00 | 49 | 1006.8 |
| 20260506102727 | 38 | 306 | 4.0 | 8.0 | 0.00 | 0.00 | 0.00 | 54 | 1006.6 |
| 20260506100729 | 38 | 291 | 8.0 | 11.0 | 0.00 | 0.00 | 0.00 | 51 | 1006.5 |
| 20260506094728 | 38 | 284 | 7.0 | 12.0 | 0.00 | 0.00 | 0.00 | 47 | 1006.2 |
| 20260506092728 | 38 | 262 | 6.0 | 10.0 | 0.00 | 0.00 | 0.00 | 47 | 1006.0 |
| 20260506090727 | 38 | 284 | 6.0 | 12.0 | 0.00 | 0.00 | 0.00 | 50 | 1005.9 |
| 20260506084728 | 38 | 23 | 4.0 | 10.0 | 0.00 | 0.00 | 0.00 | 48 | 1005.8 |
| 20260506082728 | 37 | 273 | 6.0 | 9.0 | 0.00 | 0.00 | 0.00 | 52 | 1005.6 |
| 20260506080727 | 37 | 24 | 7.0 | 11.0 | 0.00 | 0.00 | 0.00 | 52 | 1005.4 |
| 20260506072729 | 38 | 20 | 5.0 | 12.0 | 0.00 | 0.00 | 0.00 | 53 | 1005.1 |
| 20260506070728 | 37 | 339 | 4.0 | 6.0 | 0.00 | 0.00 | 0.00 | 55 | 1005.1 |
| 20260506060727 | 35 | 352 | 3.0 | 6.0 | 0.00 | 0.00 | 0.00 | 67 | 1004.8 |
| 20260506050727 | 33 | 2 | 5.0 | 7.0 | 0.00 | 0.00 | 0.00 | 72 | 1004.5 |
| 20260506044727 | 34 | 351 | 5.0 | 9.0 | 0.00 | 0.00 | 0.00 | 69 | 1004.3 |
| 20260506042727 | 34 | 18 | 4.0 | 8.0 | 0.00 | 0.00 | 0.00 | 73 | 1004.2 |
| 20260506040727 | 34 | 22 | 4.0 | 5.0 | 0.00 | 0.00 | 0.00 | 75 | 1004.0 |
| 20260506034728 | 33 | 254 | 2.0 | 3.0 | 0.00 | 0.00 | 0.00 | 82 | 1003.9 |
| 20260506032727 | 31 | 51 | 1.0 | 2.0 | 0.00 | 0.00 | 0.00 | 86 | 1003.8 |
| 20260506030727 | 29 | 32 | 4.0 | 6.0 | 0.00 | 0.00 | 0.00 | 88 | 1003.6 |
| 20260506024727 | 30 | 45 | 4.0 | 6.0 | 0.00 | 0.00 | 0.00 | 87 | 1003.4 |
| 20260506022727 | 30 | 38 | 3.0 | 4.0 | 0.00 | 0.00 | 0.00 | 84 | 1003.2 |